GM4SUF Weather Reports


time (UTC)temp
C
wind
direction
speed
KPH
gust
KPH
rain 1hr
cm
rain 24hr
cm
rain mn
cm
humidity
%
barometer
mb
20260508182910 10 298 17.7 27.4 0.00 0.00 0.00 100 1017.8
20260508182407 10 306 17.7 32.2 0.00 0.00 0.00 100 1017.7
20260508181911 10 296 16.1 32.2 0.00 0.00 0.00 100 1017.6
20260508181406 10 298 14.5 29.0 0.00 0.00 0.00 100 1017.6
20260508180905 10 341 12.9 22.5 0.00 0.00 0.00 100 1017.6
20260508180646 11 296 12.9 25.7 0.00 0.00 0.00 100 1017.5
20260508175907 11 297 14.5 25.7 0.00 0.00 0.00 100 1017.5
20260508175405 11 355 12.9 25.7 0.00 0.00 0.00 100 1017.4
20260508174906 11 296 12.9 30.6 0.00 0.00 0.00 100 1017.3
20260508174404 11 336 17.7 30.6 0.00 0.00 0.00 100 1017.2
20260508173905 11 306 20.9 30.6 0.00 0.00 0.00 100 1017.1
20260508173406 11 318 19.3 30.6 0.00 0.00 0.00 100 1017.0
20260508172912 11 281 20.9 37.0 0.00 0.00 0.00 100 1016.9
20260508172410 12 295 22.5 37.0 0.00 0.00 0.00 100 1016.8
20260508171858 12 303 20.9 32.2 0.00 0.00 0.00 100 1016.7
20260508171645 12 306 20.9 37.0 0.00 0.00 0.00 100 1016.6
20260508170904 12 274 20.9 37.0 0.00 0.00 0.00 100 1016.5
20260508170359 12 294 22.5 35.4 0.00 0.00 0.00 100 1016.5
20260508165857 12 306 24.1 37.0 0.00 0.00 0.00 100 1016.5
20260508165418 11 240 20.9 33.8 0.00 0.00 0.00 100 1016.2
20260508165400 12 282 22.5 37.0 0.00 0.00 0.00 100 1016.3
20260508164358 11 289 19.3 32.2 0.00 0.00 0.00 100 1016.2
20260508163859 11 283 17.7 32.2 0.00 0.00 0.00 100 1016.1
20260508163405 11 325 20.9 37.0 0.00 0.00 0.00 100 1016.2
20260508162857 11 272 25.7 45.1 0.00 0.00 0.00 100 1016.0
20260508162400 11 269 24.1 45.1 0.00 0.00 0.00 100 1015.9
20260508161859 11 279 17.7 38.6 0.00 0.00 0.00 100 1015.9
20260508161358 11 337 17.7 35.4 0.00 0.00 0.00 100 1015.9
20260508160856 11 297 22.5 35.4 0.00 0.00 0.00 100 1015.8
20260508160406 11 271 19.3 32.2 0.00 0.00 0.00 100 1015.9
20260508160357 11 294 22.5 33.8 0.00 0.00 0.00 100 1015.8
20260508155629 11 287 20.9 35.4 0.00 0.00 0.00 100 1015.9
20260508154854 11 315 20.9 35.4 0.00 0.00 0.00 100 1015.8
20260508154353 11 271 20.9 35.4 0.00 0.00 0.00 100 1015.8
20260508153853 11 284 20.9 35.4 0.00 0.00 0.00 100 1015.7
20260508153353 11 292 19.3 35.4 0.00 0.00 0.00 100 1015.6
20260508152855 11 310 19.3 38.6 0.00 0.00 0.00 100 1015.6
20260508152626 12 342 20.9 38.6 0.00 0.00 0.00 100 1015.5
20260508152121 12 309 19.3 32.2 0.00 0.00 0.00 100 1015.4
20260508151416 12 295 16.1 30.6 0.00 0.00 0.00 100 1015.2
20260508151403 12 298 17.7 32.2 0.00 0.00 0.00 100 1015.3
20260508150350 12 347 17.7 37.0 0.00 0.00 0.00 100 1015.1
20260508145849 12 306 17.7 37.0 0.00 0.00 0.00 100 1015.0
20260508145349 12 298 14.5 30.6 0.00 0.00 0.00 100 1015.0
20260508144850 12 303 16.1 33.8 0.00 0.00 0.00 100 1015.0
20260508144620 12 323 16.1 33.8 0.00 0.00 0.00 100 1014.9
20260508143849 12 311 17.7 33.8 0.00 0.00 0.00 100 1014.9
20260508143349 12 291 17.7 33.8 0.00 0.00 0.00 100 1014.8
20260508142848 12 287 16.1 32.2 0.00 0.00 0.00 100 1014.8
20260508142351 12 327 16.1 30.6 0.00 0.00 0.00 100 1014.8
20260508141848 12 308 17.7 37.0 0.00 0.00 0.00 100 1014.7
20260508141349 12 281 19.3 37.0 0.00 0.00 0.00 100 1014.8
20260508140846 12 303 19.3 35.4 0.00 0.00 0.00 100 1014.8
20260508140346 12 343 17.7 35.4 0.00 0.00 0.00 100 1014.7
20260508135844 12 331 17.7 41.8 0.00 0.00 0.00 100 1014.7
20260508135345 11 297 17.7 41.8 0.00 0.00 0.00 100 1014.5
20260508134844 12 303 17.7 30.6 0.00 0.00 0.00 100 1014.4
20260508134346 11 311 16.1 30.6 0.00 0.00 0.00 100 1014.4
20260508133845 11 304 19.3 35.4 0.00 0.00 0.00 100 1014.3
20260508133348 11 262 22.5 35.4 0.00 0.00 0.00 100 1014.2
20260508132840 11 299 24.1 35.4 0.00 0.00 0.00 100 1014.2
20260508132339 11 290 20.9 37.0 0.00 0.00 0.00 100 1014.1
20260508131836 11 319 19.3 38.6 0.00 0.00 0.00 100 1014.0
20260508131335 11 287 20.9 38.6 0.00 0.00 0.00 100 1014.0
20260508130835 12 336 17.7 30.6 0.00 0.00 0.00 100 1013.9
20260508130348 12 314 17.7 32.2 0.00 0.00 0.00 100 1013.7
20260508130338 12 311 17.7 32.2 0.00 0.00 0.00 100 1013.8
20260508125334 13 263 20.9 33.8 0.00 0.00 0.00 100 1013.4
20260508124833 13 300 22.5 33.8 0.00 0.00 0.00 100 1013.4
20260508124331 12 314 19.3 32.2 0.00 0.00 0.00 100 1013.3
20260508123832 12 309 17.7 30.6 0.00 0.00 0.00 100 1013.2
20260508123333 12 325 17.7 33.8 0.00 0.00 0.00 100 1013.2
20260508122832 12 284 17.7 33.8 0.00 0.00 0.00 100 1013.1
20260508122334 12 296 16.1 29.0 0.00 0.00 0.00 100 1013.1
20260508121834 12 293 17.7 29.0 0.00 0.00 0.00 100 1013.0
20260508121333 12 284 20.9 32.2 0.00 0.00 0.00 100 1013.0
20260508120833 12 309 20.9 32.2 0.00 0.00 0.00 100 1012.9
20260508120604 12 297 20.9 32.2 0.00 0.00 0.00 100 1012.9
20260508115830 12 295 17.7 32.2 0.00 0.00 0.00 100 1012.9
20260508115328 12 323 17.7 30.6 0.00 0.00 0.00 100 1012.8
20260508114828 12 307 19.3 33.8 0.00 0.00 0.00 100 1012.7
20260508114328 13 300 19.3 35.4 0.00 0.00 0.00 100 1012.6
20260508113830 13 261 19.3 35.4 0.00 0.00 0.00 100 1012.2
20260508113328 13 299 20.9 38.6 0.00 0.00 0.00 100 1012.2
20260508112827 13 268 24.1 40.2 0.00 0.00 0.00 100 1012.2
20260508112329 13 254 25.7 40.2 0.00 0.00 0.00 100 1012.2
20260508111828 12 244 20.9 40.2 0.00 0.00 0.00 100 1012.0
20260508111327 12 236 22.5 40.2 0.00 0.00 0.00 100 1012.0
20260508110829 12 217 24.1 35.4 0.00 0.00 0.00 100 1012.0
20260508110607 12 241 20.9 33.8 0.00 0.00 0.00 100 1012.1
20260508105824 12 286 19.3 38.6 0.00 0.00 0.00 100 1012.1
20260508105319 12 258 20.9 38.6 0.00 0.00 0.00 100 1011.9
20260508104814 12 261 22.5 38.6 0.00 0.00 0.00 100 1011.9
20260508104310 12 226 25.7 38.6 0.00 0.00 0.00 100 1011.8
20260508104037 12 264 25.7 38.6 0.00 0.00 0.00 100 1011.8
20260508103306 12 234 24.1 37.0 0.00 0.00 0.00 100 1011.7
20260508102827 12 273 20.9 38.6 0.00 0.00 0.00 100 1011.6
20260508102815 12 252 24.1 38.6 0.00 0.00 0.00 100 1011.7
20260508102035 12 259 19.3 35.4 0.00 0.00 0.00 100 1011.5
20260508101305 12 259 14.5 29.0 0.00 0.00 0.00 100 1011.5
20260508100804 12 267 12.9 27.4 0.00 0.00 0.00 100 1011.4
20260508100305 12 275 16.1 32.2 0.00 0.00 0.00 100 1011.4
20260508100026 11 252 17.7 32.2 0.00 0.00 0.00 100 1011.3
20260508095306 11 250 19.3 32.2 0.00 0.00 0.00 100 1011.3
20260508095038 11 263 20.9 32.2 0.00 0.00 0.00 100 1011.2
20260508094305 11 246 19.3 33.8 0.00 0.00 0.00 100 1011.2
20260508093804 11 244 20.9 33.8 0.00 0.00 0.00 100 1011.2
20260508093543 11 256 20.9 35.4 0.00 0.00 0.00 100 1011.2
20260508092804 11 256 22.5 35.4 0.00 0.00 0.00 100 1011.2
20260508092300 11 263 22.5 40.2 0.00 0.00 0.00 100 1011.1
20260508091757 11 265 22.5 43.5 0.00 0.00 0.00 100 1011.0
20260508091257 11 252 22.5 43.5 0.00 0.00 0.00 100 1010.9
20260508090759 11 228 22.5 45.1 0.00 0.00 0.00 100 1010.9
20260508090255 11 247 19.3 45.1 0.00 0.00 0.00 100 1010.8
20260508085755 11 291 17.7 32.2 0.00 0.00 0.00 100 1010.8
20260508085255 11 240 19.3 35.4 0.00 0.00 0.00 100 1010.7
20260508084755 11 249 20.9 35.4 0.00 0.00 0.00 100 1010.6
20260508084256 10 237 22.5 37.0 0.00 0.00 0.00 100 1010.4
20260508083756 10 240 22.5 37.0 0.00 0.00 0.00 100 1010.4
20260508083255 10 227 22.5 37.0 0.00 0.00 0.00 100 1010.5
20260508082755 10 234 22.5 40.2 0.00 0.00 0.00 100 1010.4
20260508082255 10 257 22.5 40.2 0.00 0.00 0.00 100 1010.5
20260508081757 10 237 24.1 38.6 0.00 0.00 0.00 100 1010.3
20260508081541 10 247 25.7 38.6 0.00 0.00 0.00 100 1010.2
20260508080814 10 269 27.4 40.2 0.00 0.00 0.00 100 1010.2
20260508080804 10 238 24.1 35.4 0.00 0.00 0.00 100 1010.2
20260508075756 10 235 25.7 40.2 0.00 0.00 0.00 100 1010.2
20260508075257 10 249 20.9 38.6 0.00 0.00 0.00 100 1010.2
20260508074750 10 273 16.1 38.6 0.00 0.00 0.00 100 1010.4
20260508074529 10 233 12.9 22.5 0.00 0.00 0.00 100 1010.5
20260508073756 10 272 9.7 22.5 0.00 0.00 0.00 100 1010.5
20260508073303 10 259 4.8 11.3 0.00 0.00 0.00 100 1010.3
20260508073253 10 274 6.4 19.3 0.00 0.00 0.00 100 1010.4
20260508072249 10 271 4.8 9.7 0.00 0.00 0.00 100 1010.3
20260508071748 10 275 3.2 12.9 0.00 0.00 0.00 100 1010.3
20260508071249 10 299 6.4 19.3 0.00 0.00 0.00 100 1010.1
20260508070747 10 230 6.4 19.3 0.00 0.00 0.00 100 1010.1
20260508070248 9 292 3.2 9.7 0.00 0.00 0.00 100 1009.9
20260508065742 9 94 3.2 6.4 0.00 0.00 0.00 100 1009.8
20260508065242 9 94 3.2 6.4 0.00 0.00 0.00 100 1009.8
20260508065008 9 99 4.8 9.7 0.00 0.00 0.00 100 1009.6
20260508064545 8 99 4.8 12.9 0.00 0.00 0.00 100 1009.6
20260508063735 8 133 6.4 12.9 0.00 0.00 0.00 100 1009.5
20260508063233 8 145 6.4 20.9 0.00 0.00 0.00 100 1009.4
20260508062731 8 227 9.7 20.9 0.00 0.00 0.00 100 1009.4
20260508062243 8 249 8.0 20.9 0.00 0.00 0.00 100 1009.2
20260508062232 8 227 11.3 20.9 0.00 0.00 0.00 100 1009.3
20260508061232 8 265 6.4 16.1 0.00 0.00 0.00 100 1009.3
20260508060735 8 259 8.0 17.7 0.00 0.00 0.00 100 1009.2
20260508060253 7 255 9.7 17.7 0.00 0.00 0.00 100 1009.2
20260508060241 8 265 11.3 17.7 0.00 0.00 0.00 100 1009.1
20260508055514 7 252 6.4 16.1 0.00 0.00 0.00 100 1009.1
20260508055056 7 237 6.4 12.9 0.00 0.00 0.00 100 1008.9
20260508054736 7 226 6.4 11.3 0.00 0.00 0.00 100 1009.0
20260508053956 7 259 6.4 12.9 0.00 0.00 0.00 100 1008.9
20260508053227 7 257 8.0 16.1 0.00 0.00 0.00 100 1008.9
20260508052726 6 249 8.0 16.1 0.00 0.00 0.00 100 1008.8
20260508052226 6 230 4.8 12.9 0.00 0.00 0.00 100 1008.8
20260508051727 6 237 4.8 11.3 0.00 0.00 0.00 100 1008.8
20260508051227 6 199 4.8 11.3 0.00 0.00 0.00 100 1008.8
20260508050726 5 294 3.2 9.7 0.00 0.00 0.00 100 1008.7
20260508050230 5 254 4.8 8.0 0.00 0.00 0.00 100 1008.7
20260508045727 5 254 6.4 11.3 0.00 0.00 0.00 100 1008.7
20260508045229 5 256 6.4 11.3 0.00 0.00 0.00 100 1008.6
20260508044727 5 256 8.0 14.5 0.00 0.00 0.00 100 1008.7
20260508044222 5 274 8.0 16.1 0.00 0.00 0.00 100 1008.5
20260508043722 4 290 6.4 16.1 0.00 0.00 0.00 100 1008.4
20260508043220 4 259 3.2 6.4 0.00 0.00 0.00 100 1008.4
20260508042721 4 259 3.2 6.4 0.00 0.00 0.00 100 1008.4
20260508042220 4 257 1.6 6.4 0.00 0.00 0.00 100 1008.3
20260508041945 4 256 1.6 3.2 0.00 0.00 0.00 100 1008.4
20260508041212 4 257 1.6 4.8 0.00 0.00 0.00 100 1008.4
20260508040708 4 257 3.2 9.7 0.00 0.00 0.00 100 1008.3
20260508040208 5 257 4.8 9.7 0.00 0.00 0.00 100 1008.3
20260508035940 5 257 4.8 9.7 0.00 0.00 0.00 100 1008.4
20260508035205 5 257 4.8 9.7 0.00 0.00 0.00 100 1008.3
20260508034706 5 265 4.8 6.4 0.00 0.00 0.00 100 1008.3
20260508034442 5 292 4.8 11.3 0.00 0.00 0.00 100 1008.4
20260508033704 5 292 6.4 11.3 0.00 0.00 0.00 100 1008.3
20260508033202 5 290 4.8 11.3 0.00 0.00 0.00 100 1008.2
20260508032704 5 263 6.4 11.3 0.00 0.00 0.00 100 1008.1
20260508032202 5 249 6.4 11.3 0.00 0.00 0.00 100 1008.1
20260508031706 6 270 4.8 6.4 0.00 0.00 0.00 100 1008.1
20260508031448 6 257 3.2 6.4 0.00 0.00 0.00 100 1008.1
20260508030704 6 252 1.6 4.8 0.00 0.00 0.00 100 1008.1
20260508030203 6 252 3.2 6.4 0.00 0.00 0.00 100 1008.1
20260508025700 6 252 4.8 11.3 0.00 0.00 0.00 100 1008.1
20260508025154 6 252 6.4 11.3 0.00 0.00 0.00 100 1008.1
20260508024656 6 239 8.0 12.9 0.00 0.00 0.00 100 1008.1
20260508024156 6 232 8.0 12.9 0.00 0.00 0.00 100 1008.2
20260508023654 6 242 6.4 11.3 0.00 0.00 0.00 100 1008.1
20260508023154 6 252 6.4 8.0 0.00 0.00 0.00 100 1008.1
20260508022654 6 256 6.4 11.3 0.00 0.00 0.00 100 1008.1
20260508022215 7 264 4.8 11.3 0.00 0.00 0.00 100 1008.1
20260508022204 6 257 4.8 11.3 0.00 0.00 0.00 100 1008.1
20260508021436 7 264 3.2 11.3 0.00 0.00 0.00 100 1008.0
20260508020921 7 273 3.2 4.8 0.00 0.00 0.00 100 1008.0
20260508020157 7 272 3.2 4.8 0.00 0.00 0.00 100 1008.0
20260508015656 8 273 3.2 4.8 0.00 0.00 0.00 100 1007.9
20260508015432 8 273 1.6 4.8 0.00 0.00 0.00 100 1007.9
20260508014654 8 273 0.0 3.2 0.00 0.00 0.00 100 1007.7
20260508014154 8 273 1.6 6.4 0.00 0.00 0.00 100 1007.8
20260508013656 8 273 1.6 6.4 0.00 0.00 0.00 100 1007.8
20260508013154 9 272 0.0 4.8 0.00 0.00 0.00 100 1007.7
20260508012706 9 273 3.2 9.7 0.00 0.00 0.00 100 1007.6
20260508012655 9 273 1.6 9.7 0.00 0.00 0.00 100 1007.7
20260508011648 9 259 3.2 9.7 0.00 0.00 0.00 100 1007.7
20260508011149 10 258 4.8 11.3 0.00 0.00 0.00 100 1007.7
20260508010649 10 257 6.4 11.3 0.00 0.00 0.00 100 1007.7
20260508010423 10 223 8.0 12.9 0.00 0.00 0.00 100 1007.7
20260508005651 10 247 6.4 12.9 0.00 0.00 0.00 100 1007.7
20260508005149 10 246 6.4 12.9 0.00 0.00 0.00 100 1007.7
20260508004649 10 241 6.4 14.5 0.00 0.00 0.00 100 1007.7
20260508004424 10 245 4.8 14.5 0.00 0.00 0.00 100 1007.7
20260508003917 10 229 4.8 11.3 0.00 0.00 0.00 100 1007.7
20260508003144 10 240 3.2 8.0 0.00 0.00 0.00 100 1007.7
20260508002644 10 240 6.4 12.9 0.00 0.00 0.00 100 1007.8
20260508002149 10 240 6.4 12.9 0.00 0.00 0.00 100 1007.7
20260508001643 10 207 6.4 9.7 0.00 0.00 0.00 100 1007.7
20260508001132 10 176 6.4 11.3 0.00 0.00 0.00 100 1007.7
20260508000633 10 192 6.4 12.9 0.00 0.00 0.00 100 1007.7
20260508000137 10 191 8.0 14.5 0.00 0.00 0.00 100 1007.7
20260507235638 10 237 9.7 17.7 0.00 0.00 0.00 100 1007.6
20260507235413 10 228 9.7 17.7 0.00 0.00 0.00 100 1007.6
20260507234632 10 226 9.7 17.7 0.00 0.00 0.00 100 1007.6
20260507234137 10 227 8.0 17.7 0.00 0.00 0.00 100 1007.6
20260507233630 10 226 8.0 17.7 0.00 0.00 0.00 100 1007.7
20260507233403 10 237 11.3 24.1 0.00 0.00 0.00 100 1007.5
20260507232631 10 241 11.3 24.1 0.00 0.00 0.00 100 1007.4
20260507232130 10 187 11.3 20.9 0.00 0.00 0.00 100 1007.4
20260507231631 10 216 12.9 20.9 0.00 0.00 0.00 100 1007.4
20260507231409 10 207 12.9 20.9 0.00 0.00 0.00 100 1007.4
20260507230632 10 250 12.9 22.5 0.00 0.00 0.00 100 1007.4
20260507230130 10 226 12.9 22.5 0.00 0.00 0.00 100 1007.3
20260507225629 10 230 12.9 22.5 0.00 0.00 0.00 100 1007.3
20260507225128 10 217 12.9 22.5 0.00 0.00 0.00 100 1007.3
20260507224629 10 230 12.9 29.0 0.00 0.00 0.00 100 1007.3
20260507224129 10 211 14.5 29.0 0.00 0.00 0.00 100 1007.2
20260507223858 10 215 14.5 27.4 0.00 0.00 0.00 100 1007.3
20260507223127 10 242 14.5 24.1 0.00 0.00 0.00 100 1007.3
20260507222627 10 222 12.9 24.1 0.00 0.00 0.00 100 1007.2
20260507222127 10 188 12.9 19.3 0.00 0.00 0.00 100 1007.2
20260507221625 10 196 12.9 24.1 0.00 0.00 0.00 100 1007.2
20260507221126 10 226 11.3 24.1 0.00 0.00 0.00 100 1007.2
20260507220625 10 202 9.7 16.1 0.00 0.00 0.00 100 1007.3
20260507220126 10 219 12.9 20.9 0.00 0.00 0.00 100 1007.3
20260507215625 10 215 12.9 22.5 0.00 0.00 0.00 100 1007.3
20260507215403 10 216 11.3 22.5 0.00 0.00 0.00 100 1007.4
20260507214625 10 221 9.7 17.7 0.00 0.00 0.00 100 1007.4
20260507214125 10 203 8.0 16.1 0.00 0.00 0.00 100 1007.4
20260507213625 10 199 8.0 17.7 0.00 0.00 0.00 100 1007.4
20260507213126 10 209 9.7 22.5 0.00 0.00 0.00 100 1007.4
20260507212628 11 195 11.3 22.5 0.00 0.00 0.00 100 1007.3
20260507212127 11 219 11.3 24.1 0.00 0.00 0.00 100 1007.3
20260507211850 11 208 9.7 24.1 0.00 0.00 0.00 100 1007.4
20260507211126 11 202 9.7 19.3 0.00 0.00 0.00 100 1007.3
20260507210619 11 193 9.7 19.3 0.00 0.00 0.00 100 1007.2
20260507210120 11 227 9.7 17.7 0.00 0.00 0.00 100 1007.0
20260507205849 11 214 11.3 24.1 0.00 0.00 0.00 100 1007.1
20260507205119 11 248 11.3 24.1 0.00 0.00 0.00 100 1007.1
20260507204619 11 229 12.9 24.1 0.00 0.00 0.00 100 1007.0
20260507204126 11 194 12.9 29.0 0.00 0.00 0.00 100 1007.0
20260507203621 11 207 14.5 29.0 0.00 0.00 0.00 100 1007.0
20260507203152 11 213 11.3 27.4 0.00 0.00 0.00 100 1006.9
20260507203130 11 227 12.9 27.4 0.00 0.00 0.00 100 1007.0
20260507202853 11 192 9.7 20.9 0.00 0.00 0.00 100 1006.8
20260507201608 11 194 11.3 20.9 0.00 0.00 0.00 100 1006.6
20260507201105 11 217 9.7 19.3 0.00 0.00 0.00 100 1006.6
20260507200607 11 218 9.7 20.9 0.00 0.00 0.00 100 1006.5
20260507200117 11 203 11.3 29.0 0.00 0.00 0.00 100 1006.5
20260507195601 11 167 11.3 29.0 0.00 0.00 0.00 100 1006.5
20260507195059 11 200 9.7 22.5 0.00 0.00 0.00 100 1006.5
20260507194558 12 178 11.3 20.9 0.00 0.00 0.00 100 1006.5
20260507194327 12 186 14.5 30.6 0.00 0.00 0.00 100 1006.5
20260507193557 12 216 14.5 30.6 0.00 0.00 0.00 100 1006.5
20260507193057 12 203 14.5 22.5 0.00 0.00 0.00 100 1006.4
20260507192557 12 210 16.1 38.6 0.00 0.00 0.00 100 1006.4
20260507192056 12 228 17.7 38.6 0.00 0.00 0.00 100 1006.3
20260507191559 12 253 17.7 24.1 0.00 0.00 0.00 100 1006.3
20260507191327 13 233 16.1 29.0 0.00 0.00 0.00 100 1006.3
20260507190554 13 219 14.5 29.0 0.00 0.00 0.00 100 1006.4
20260507190054 12 232 12.9 24.1 0.00 0.00 0.00 100 1006.3
20260507185550 12 217 12.9 27.4 0.00 0.00 0.00 100 1006.4
20260507185042 13 213 14.5 27.4 0.00 0.00 0.00 100 1006.3
20260507184537 12 203 14.5 27.4 0.00 0.00 0.00 100 1006.2
20260507184032 12 245 12.9 27.4 0.00 0.00 0.00 100 1006.2
20260507183533 13 221 14.5 27.4 0.00 0.00 0.00 100 1006.2
20260507183035 13 211 17.7 29.0 0.00 0.00 0.00 100 1006.1